Location: Feigenhofen
(48.4939°N, 10.7793°E)
Time: 16:51:02
(UTC+00:00)

Cosmos 2333 Rocket - Pass Details

Date: 26 May 2022
Orbit: 839 x 863 km, 70.8° (Epoch: 28 June)

Event Time Altitude Azimuth Distance (km) Brightness Sun altitude
Exits shadow 00:19:43 12° 254° (WSW) 2,336 4.2 -18.9°
Maximum altitude 00:24:15 30° 313° (NW) 1,475 3.7 -18.7°
Drops below altitude 10° 00:29:13 10° 14° (NNE) 2,480 5.9 -18.4°
Sets 00:32:00 0° 25° (NNE) 3,423 7.1 -18.3°
